Tracking 30986 objects as of 9-Jul-2025
HD Live streaming from Space Station
objects crossing your sky now

FENGYUN 1C DEB

Track FENGYUN 1C DEB now!
10-day predictions


NORAD ID: 32316
Int'l Code: 1999-025CXH
Perigee: 710.9 km
Apogee: 753.8 km
Inclination: 99.5 °
Period: 99.3 minutes
Semi major axis: 7103 km
RCS: 0.0087 m2 (small)
Launch date: May 10, 1999
Source: People's Republic of China (PRC)
Launch site: Taiyaun Space Center, China (TSC)

Note: This is SATELLITE DEBRIS
Your satellite tracking list
Your tracking list is empty




NASA's NSSDC Master Catalog

Two Line Element Set (TLE):
1 32316U 99025CXH 25189.80093341  .00004279  00000-0  11092-2 0  9990
2 32316  99.5350 195.5182 0030163  75.3696 101.4668 14.50131717935012
Source of the keplerian elements: AFSPC